Location: Roland
(31.1349°N, 85.4372°W)
Time: 22:08:32
(UTC+00:00)

Tiros 1 - Pass Details

Date: 19 April 2021
Orbit: 630 x 664 km, 48.4° (Epoch: 05 May)

Event Time Altitude Azimuth Distance (km) Brightness Sun altitude
Rises 19:18:01 0° 321° (NW) 2,916 10.5 60.1°
Reaches altitude 10° 19:21:43 10° 351° (N) 2,006 9.7 59.5°
Maximum altitude 19:23:41 12° 17° (NNE) 1,844 9.4 59.1°
Drops below altitude 10° 19:25:40 10° 42° (NE) 2,005 9.5 58.8°
Sets 19:29:21 0° 72° (ENE) 2,914 10.2 58.1°
